This is the latest recevied weather packets stored in our database for station/object K1FFK-1. If no packets are shown the sender has not sent any weather packets the latest 10 day(s).
| Time | Temp. | Humidity | Pressure | Rain* | Wind** | Luminosity | Snow |
|---|---|---|---|---|---|---|---|
| 1778161894 | 0° C | 86% | 1009.9 hPa | 0 mm | - | - | - |
| 1778161293 | 0° C | 87% | 1009.9 hPa | 0 mm | - | - | - |
| 1778160694 | 0° C | 88% | 1009.8 hPa | 0 mm | - | - | - |
| 1778160097 | -0.56° C | 89% | 1009.9 hPa | 0 mm | - | - | - |
| 1778159494 | -0.56° C | 89% | 1009.6 hPa | 0 mm | - | - | - |
| 1778158893 | -1.11° C | 88% | 1009.7 hPa | 0 mm | - | - | - |
| 1778158296 | -1.11° C | - | - | 0 mm | - | - | - |
| 1778158294 | -1.11° C | 93% | 1009.6 hPa | 0 mm | - | - | - |
| 1778157696 | -1.11° C | 94% | 1009.6 hPa | 0 mm | - | - | - |
| 1778157094 | -1.11° C | 95% | 1009.4 hPa | 0 mm | - | - | - |
| 1778156494 | -1.11° C | 100% | 1009.4 hPa | 0 mm | - | - | - |
| 1778155894 | -1.11° C | 100% | 1009.4 hPa | 0 mm | - | - | - |
| 1778155295 | -1.67° C | 100% | 1009.2 hPa | 0 mm | - | - | - |
| 1778154694 | -1.67° C | 100% | 1009.2 hPa | 0 mm | - | - | - |
| 1778154093 | -1.67° C | 100% | 1009 hPa | 0 mm | - | - | - |
| 1778153494 | -1.67° C | 100% | 1008.9 hPa | 0 mm | - | - | - |
| 1778152894 | -1.67° C | 100% | 1008.8 hPa | 0 mm | - | - | - |
| 1778152294 | -1.67° C | 100% | 1008.9 hPa | 0 mm | - | - | - |
| 1778151694 | -1.67° C | 100% | 1008.5 hPa | 0 mm | - | - | - |
| 1778151094 | -1.67° C | 98% | 1008.8 hPa | 0 mm | - | - | - |
| 1778150494 | -1.11° C | 98% | 1008.7 hPa | 0 mm | - | - | - |
| 1778149894 | -0.56° C | 98% | 1008.7 hPa | 0 mm | - | - | - |
| 1778149293 | 0° C | 98% | 1008.4 hPa | 0 mm | - | - | - |
| 1778148694 | 0° C | 98% | 1008.5 hPa | 0 mm | - | - | - |
| 1778148094 | 0° C | 97% | 1008.6 hPa | 0 mm | - | - | - |
* Rain latest hour (hover to see other rain measurements)
** Current wind speed in m/s (hover to see current wind gust speed)